User: anonymous   Login
Location: Fort Wayne
(41.1310°N, 85.1290°W)
Time: 00:54:28
(UTC-04:00)
Language:

SL-08 RB Rocket - Orbit

View from above orbital plane
View from above orbital plane
View from above satellite
View from above satellite

Ground track
Ground track

The orbit data is extracted from the following two-line orbital elements,

1 26387U 00033D   16238.31180343  .00000053  00000-0  17586-4 0  9994
2 26387  98.0121 303.5048 0026238 194.2520 207.7939 14.68180263864460
Epoch (UTC): 25 August 2016 07:28:59
Eccentricity: 0.0026238
inclination: 98.0121°
perigee height: 648 km
apogee height: 685 km
right ascension of ascending node: 303.5048°
argument of perigee: 194.2520°
revolutions per day: 14.68180263
mean anomaly at epoch: 207.7939°
orbit number at epoch: 86446

The dashed part of the orbit path shows where the satellite is in the earth's shadow,  

DLR